Weather History for KAPN - January, 2013

Change the Weather History Date:

Sunday, January 20, 2013

  Actual Average Record
Temperature  
Mean Temperature 21 °F 19 °F  
Max Temperature 33 °F 26 °F 45 °F (1921)
Min Temperature 8 °F 11 °F -18 °F (1961)
Degree Days  
Heating Degree Days 44 46  
Month to date heating degree days 746 909  
Since 1 July heating degree days 3522 3970  
Moisture  
Dew Point 12 °F    
Average Humidity 70    
Maximum Humidity 85    
Minimum Humidity 54    
Precipitation  
Precipitation 0.05 in 0.05 in 0.81 in (1974)
Month to date precipitation 1.18 1.14  
Year to date precipitation 1.18 1.14  
Snow  
Snow 1.10 in 0.70 in 9.00 in (1920)
Month to date snowfall 2.3 14.0  
Since 1 July snowfall 16.0 41.3  
Snow Depth 1.00 in    
Sea Level Pressure  
Sea Level Pressure 29.74 in    
Wind  
Wind Speed 12 mph (WNW)    
Max Wind Speed 28 mph    
Max Gust Speed 43 mph    
Visibility 5 miles    
Events Fog , Snow    
T = Trace of Precipitation, MM = Missing Value Source: NWS Daily Summary

Daily Weather History Graph

Daily Weather History Graph

Search for Another Location

Airport or City:

Trip Planner

Search our weather history database for the weather conditions in past years. The results will help you decide how hot, cold, wet, or windy it might be!

Date:

Astronomy

Jan. 20, 2013 Rise Set
Actual Time 8:05 AM EST 5:25 PM EST
Civil Twilight 7:33 AM EST 5:57 PM EST
Nautical Twilight 6:57 AM EST 6:34 PM EST
Astronomical Twilight 6:22 AM EST 7:08 PM EST
Moon 12:26 PM EST (1/20) 2:35 AM EST (1/20)
Length of Visible Light 10h 24m
Length of Day
9h 19m
Waxing Gibbous, 66% of the Moon is Illuminated
Jan 20
Waxing Gibbous
Jan 26
Full
Feb 3
Last Quarter
Feb 10
New
Feb 17
First Quarter

Hourly Weather History & Observations

Time (EST) Temp. Windchill Dew Point Humidity Pressure Visibility Wind Dir Wind Speed Gust Speed Precip Events Conditions
12:26 AM 30.2 °F 20.2 °F 26.6 °F 86% 29.36 in 9.0 mi NW 12.7 mph 23.0 mph 0.00 in   Mostly Cloudy
12:34 AM 30.2 °F 20.8 °F 26.6 °F 86% 29.36 in 1.5 mi WNW 11.5 mph 23.0 mph 0.00 in Snow Light Snow
12:39 AM 30.2 °F 20.2 °F 28.4 °F 93% 29.36 in 0.5 mi WNW 12.7 mph 19.6 mph 0.01 in Fog , Snow Snow
12:54 AM 30.0 °F 21.7 °F 27.0 °F 88% 29.39 in 1.2 mi WNW 9.2 mph 23.0 mph 0.02 in Snow Light Snow
12:59 AM 30.2 °F 23.4 °F 28.4 °F 93% 29.36 in 3.0 mi WNW 6.9 mph 16.1 mph 0.00 in Snow Light Snow
1:08 AM 30.2 °F 23.4 °F 28.4 °F 93% 29.37 in 2.5 mi WNW 6.9 mph - 0.00 in Snow Light Snow
1:13 AM 30.2 °F 18.9 °F 28.4 °F 93% 29.38 in 0.8 mi NW 16.1 mph 26.5 mph 0.00 in Snow Light Snow
1:34 AM 26.6 °F 16.2 °F 23.0 °F 86% 29.40 in 1.8 mi WNW 11.5 mph 24.2 mph 0.01 in Snow Light Snow
1:36 AM 26.6 °F 16.2 °F 23.0 °F 86% 29.40 in 2.5 mi WNW 11.5 mph 20.7 mph 0.01 in Snow Light Snow
1:43 AM 26.6 °F 13.8 °F 19.4 °F 74% 29.41 in 5.0 mi WNW 17.3 mph 32.2 mph 0.01 in   Overcast
1:54 AM 25.0 °F 12.2 °F 19.0 °F 78% 29.45 in 6.0 mi WNW 16.1 mph 29.9 mph 0.01 in   Overcast
2:06 AM 24.8 °F 10.7 °F 19.4 °F 80% 29.44 in 1.8 mi West 19.6 mph 29.9 mph 0.00 in Snow Light Snow
2:11 AM 24.8 °F 10.7 °F 19.4 °F 80% 29.44 in 3.0 mi West 19.6 mph 32.2 mph 0.00 in Snow Light Snow
2:19 AM 24.8 °F 12.9 °F 19.4 °F 80% 29.45 in 4.0 mi West 13.8 mph 32.2 mph 0.00 in Snow Light Snow
2:41 AM 23.0 °F 9.2 °F 17.6 °F 80% 29.48 in 2.5 mi West 17.3 mph 28.8 mph 0.00 in Snow Light Snow
2:49 AM 23.0 °F 10.1 °F 17.6 °F 80% 29.48 in 2.5 mi West 15.0 mph 28.8 mph 0.00 in Snow Light Snow
2:52 AM 23.0 °F 11.1 °F 17.6 °F 80% 29.49 in 3.0 mi West 12.7 mph 31.1 mph 0.00 in Snow Light Snow
2:54 AM 23.0 °F 8.3 °F 18.0 °F 81% 29.52 in 2.5 mi West 19.6 mph 31.1 mph 0.00 in Snow Light Snow
3:04 AM 23.0 °F 9.2 °F 17.6 °F 80% 29.50 in 1.8 mi West 17.3 mph 34.5 mph 0.00 in Snow Light Snow
3:12 AM 23.0 °F 9.2 °F 17.6 °F 80% 29.50 in 2.0 mi West 17.3 mph 32.2 mph 0.00 in Snow Light Snow
3:19 AM 21.2 °F 6.0 °F 17.6 °F 86% 29.51 in 1.2 mi West 19.6 mph 41.4 mph 0.00 in Snow Light Snow
3:35 AM 21.2 °F 6.4 °F 15.8 °F 80% 29.52 in 2.5 mi West 18.4 mph 33.4 mph 0.00 in Snow Light Snow
3:46 AM 21.2 °F 6.0 °F 15.8 °F 80% 29.53 in 2.0 mi West 19.6 mph 36.8 mph 0.00 in Snow Light Snow
3:54 AM 21.0 °F 6.2 °F 16.0 °F 81% 29.57 in 1.8 mi West 18.4 mph 36.8 mph 0.00 in Snow Light Snow
4:20 AM 19.4 °F 5.5 °F 15.8 °F 86% 29.58 in 0.5 mi WNW 15.0 mph 34.5 mph 0.00 in Fog , Snow Snow
4:35 AM 19.4 °F 5.0 °F 15.8 °F 86% 29.60 in 1.0 mi West 16.1 mph 25.3 mph 0.00 in Snow Light Snow
4:54 AM 18.0 °F 2.6 °F 9.0 °F 68% 29.65 in 1.8 mi WNW 17.3 mph 36.8 mph 0.00 in Snow Light Snow
4:58 AM 17.6 °F 1.7 °F 8.6 °F 68% 29.63 in 2.0 mi WNW 18.4 mph 41.4 mph 0.00 in Snow Light Snow
5:11 AM 17.6 °F 2.7 °F 8.6 °F 68% 29.64 in 1.8 mi WNW 16.1 mph 42.6 mph 0.00 in Snow Light Snow
5:16 AM 17.6 °F 3.7 °F 8.6 °F 68% 29.64 in 4.0 mi West 13.8 mph 31.1 mph 0.00 in   Overcast
5:54 AM 16.0 °F -0.4 °F 8.1 °F 71% 29.71 in 6.0 mi West 18.4 mph 26.5 mph 0.00 in   Overcast
6:22 AM 15.8 °F 4.2 °F 10.4 °F 79% 29.72 in 1.5 mi NW 9.2 mph 27.6 mph 0.00 in Snow Light Snow
6:28 AM 15.8 °F 2.7 °F 10.4 °F 79% 29.73 in 0.5 mi WNW 11.5 mph 23.0 mph 0.00 in Fog , Snow Snow
6:43 AM 14.0 °F -1.4 °F 6.8 °F 73% 29.75 in 1.2 mi WNW 15.0 mph 31.1 mph 0.00 in Snow Light Snow
6:54 AM 12.9 °F -2.8 °F 5.0 °F 71% 29.80 in 2.0 mi WNW 15.0 mph 34.5 mph 0.00 in Snow Light Snow
6:59 AM 12.2 °F -1.8 °F 5.0 °F 73% 29.77 in 3.0 mi WNW 11.5 mph 33.4 mph 0.00 in Snow Light Snow
7:54 AM 12.0 °F -4.5 °F 5.0 °F 73% 29.87 in 8.0 mi WNW 16.1 mph 25.3 mph 0.00 in   Overcast
8:54 AM 12.9 °F -2.8 °F 3.0 °F 65% 29.93 in 10.0 mi WNW 15.0 mph 31.1 mph N/A   Overcast
9:54 AM 12.9 °F -3.9 °F 1.9 °F 62% 29.99 in 8.0 mi WNW 17.3 mph 31.1 mph N/A   Mostly Cloudy
10:54 AM 12.9 °F -2.2 °F 1.9 °F 62% 30.04 in 10.0 mi WNW 13.8 mph 25.3 mph N/A   Overcast
11:54 AM 12.9 °F -0.2 °F 3.0 °F 65% 30.04 in 10.0 mi WNW 10.4 mph 26.5 mph N/A   Overcast
12:54 PM 15.1 °F -0.1 °F 3.0 °F 59% 30.04 in 10.0 mi NW 15.0 mph 24.2 mph N/A   Overcast
1:54 PM 14.0 °F -1.4 °F 3.0 °F 62% 30.05 in 10.0 mi NW 15.0 mph 24.2 mph 0.00 in   Overcast
2:54 PM 17.1 °F 6.6 °F 3.0 °F 54% 30.07 in 10.0 mi NW 8.1 mph 20.7 mph N/A   Overcast
3:33 PM 15.8 °F 3.4 °F 6.8 °F 68% 30.05 in 1.5 mi WNW 10.4 mph 19.6 mph 0.00 in Snow Light Snow
3:46 PM 14.0 °F 2.9 °F 6.8 °F 73% 30.05 in 4.0 mi West 8.1 mph - 0.00 in Snow Light Snow
3:54 PM 15.1 °F 1.8 °F 7.0 °F 70% 30.09 in 4.0 mi WNW 11.5 mph 17.3 mph 0.00 in Snow Light Snow
4:09 PM 15.8 °F 4.2 °F 6.8 °F 68% 30.05 in 5.0 mi WNW 9.2 mph - 0.00 in Snow Light Snow
4:54 PM 14.0 °F 0.5 °F -0.0 °F 54% 30.11 in 10.0 mi WNW 11.5 mph 25.3 mph 0.00 in   Mostly Cloudy
5:54 PM 12.0 °F -0.4 °F 1.9 °F 64% 30.13 in 10.0 mi WNW 9.2 mph - N/A   Scattered Clouds
6:54 PM 10.9 °F -0.8 °F 1.9 °F 67% 30.14 in 10.0 mi West 8.1 mph - N/A   Clear
7:54 PM 10.9 °F 0.2 °F 1.9 °F 67% 30.14 in 10.0 mi West 6.9 mph - N/A   Overcast
8:54 PM 10.9 °F 1.4 °F 3.0 °F 70% 30.14 in 10.0 mi WSW 5.8 mph - N/A   Overcast
9:54 PM 10.0 °F 3.6 °F 3.9 °F 76% 30.14 in 10.0 mi WSW 3.5 mph - N/A   Scattered Clouds
10:54 PM 9.0 °F 2.4 °F 3.9 °F 80% 30.14 in 10.0 mi SW 3.5 mph - N/A   Mostly Cloudy
11:54 PM 9.0 °F 0.6 °F 3.0 °F 77% 30.13 in 10.0 mi WSW 4.6 mph - N/A   Overcast